Location: Hains Lake
(37.8540°N, 99.8578°W)
Time: 03:31:33
(UTC+00:00)

Vanguard 1 - Pass Details

Date: 05 December 2021
Orbit: 652 x 3830 km, 34.2° (Epoch: 21 January)

Event Time Altitude Azimuth Distance (km) Brightness Sun altitude
Exits shadow 12:26:41 15° 278° (W) 6,013 13.4 -14.2°
Maximum altitude 12:41:45 42° 220° (SW) 3,341 12.6 -11.4°
Drops below altitude 10° 12:52:37 10° 153° (SSE) 4,093 14.0 -9.4°
Sets 12:55:26 0° 146° (SE) 4,736 14.6 -8.9°
